TimeHST,TemperatureF,Dew PointF,Humidity,Sea Level PressureIn,VisibilityMPH,Wind Direction,Wind SpeedMPH,Gust SpeedMPH,PrecipitationIn,Events,Conditions,WindDirDegrees,DateUTC
12:00 AM,73.4,73.4,100,30.04,10.0,NNW,5.8,-,0.00,,Overcast,340,2013-07-23 10:00:00
12:22 AM,73.4,73.4,100,30.04,10.0,NNW,3.5,-,0.00,,Overcast,330,2013-07-23 10:22:00
12:50 AM,73.4,73.4,100,30.03,10.0,NNW,4.6,-,0.00,,Overcast,330,2013-07-23 10:50:00
12:53 AM,73.0,73.0,100,30.02,10.0,NNW,3.5,-,0.00,,Overcast,330,2013-07-23 10:53:00
1:28 AM,73.4,73.4,100,30.02,10.0,NNW,4.6,-,0.00,,Mostly Cloudy,330,2013-07-23 11:28:00
1:53 AM,73.9,73.0,97,30.01,10.0,NW,4.6,-,0.00,,Mostly Cloudy,320,2013-07-23 11:53:00
2:53 AM,73.0,73.0,100,29.99,10.0,NNW,5.8,-,N/A,,Mostly Cloudy,340,2013-07-23 12:53:00
3:53 AM,73.9,73.0,97,29.98,10.0,NNW,4.6,-,N/A,,Mostly Cloudy,330,2013-07-23 13:53:00
4:18 AM,73.4,73.4,100,29.98,10.0,NNW,4.6,-,N/A,,Overcast,330,2013-07-23 14:18:00
4:25 AM,73.4,73.4,100,29.98,10.0,NNW,4.6,-,N/A,,Overcast,330,2013-07-23 14:25:00
4:53 AM,73.9,73.0,97,29.98,10.0,NNW,8.1,-,N/A,,Overcast,330,2013-07-23 14:53:00
5:39 AM,73.4,73.4,100,29.98,10.0,NW,3.5,-,N/A,,Overcast,320,2013-07-23 15:39:00
5:53 AM,73.9,73.9,100,29.98,10.0,North,5.8,-,N/A,,Overcast,350,2013-07-23 15:53:00
6:32 AM,75.2,73.4,94,30.00,10.0,ENE,8.1,-,N/A,,Overcast,60,2013-07-23 16:32:00
6:53 AM,75.9,73.9,94,29.99,10.0,NE,9.2,-,N/A,,Mostly Cloudy,40,2013-07-23 16:53:00
7:01 AM,77.0,73.4,89,30.00,10.0,NE,8.1,-,N/A,,Mostly Cloudy,40,2013-07-23 17:01:00
7:09 AM,77.0,73.4,89,30.01,10.0,NE,8.1,-,N/A,,Mostly Cloudy,40,2013-07-23 17:09:00
7:25 AM,77.0,73.4,89,30.01,10.0,NNE,8.1,-,N/A,,Overcast,30,2013-07-23 17:25:00
7:53 AM,77.0,73.0,88,30.00,10.0,NE,6.9,-,N/A,,Mostly Cloudy,50,2013-07-23 17:53:00
8:04 AM,77.0,73.4,89,30.01,10.0,ENE,4.6,-,N/A,,Scattered Clouds,60,2013-07-23 18:04:00
8:31 AM,77.0,73.4,89,30.01,10.0,East,6.9,-,N/A,,Mostly Cloudy,80,2013-07-23 18:31:00
8:42 AM,77.0,73.4,89,30.01,10.0,East,11.5,18.4,0.00,Rain,Light Rain,90,2013-07-23 18:42:00
8:53 AM,77.0,75.0,94,30.01,9.0,East,11.5,-,0.00,Rain,Light Rain,100,2013-07-23 18:53:00
9:22 AM,80.6,75.2,84,30.02,10.0,East,12.7,-,0.00,,Mostly Cloudy,90,2013-07-23 19:22:00
9:53 AM,79.0,73.9,84,30.02,10.0,East,13.8,-,0.00,,Scattered Clouds,80,2013-07-23 19:53:00
10:53 AM,81.0,73.9,79,30.02,10.0,ENE,12.7,-,N/A,,Overcast,70,2013-07-23 20:53:00
11:53 AM,82.0,73.9,76,30.02,10.0,ENE,10.4,-,N/A,,Mostly Cloudy,70,2013-07-23 21:53:00
12:53 PM,81.0,73.0,77,30.02,10.0,ENE,10.4,-,N/A,,Mostly Cloudy,70,2013-07-23 22:53:00
1:02 PM,82.4,73.4,74,30.02,10.0,ENE,12.7,-,N/A,,Overcast,70,2013-07-23 23:02:00
1:32 PM,82.4,73.4,74,30.02,10.0,ENE,10.4,-,N/A,,Mostly Cloudy,70,2013-07-23 23:32:00
1:50 PM,82.4,73.4,74,30.02,10.0,ENE,12.7,-,N/A,,Partly Cloudy,70,2013-07-23 23:50:00
1:53 PM,82.0,73.0,74,30.01,10.0,ENE,12.7,-,N/A,,Scattered Clouds,70,2013-07-23 23:53:00
2:53 PM,82.0,72.0,71,30.00,10.0,ENE,11.5,-,N/A,,Scattered Clouds,60,2013-07-24 00:53:00
3:53 PM,82.9,73.0,72,29.99,10.0,ENE,11.5,-,N/A,,Mostly Cloudy,60,2013-07-24 01:53:00
4:29 PM,82.4,71.6,70,30.00,10.0,NE,11.5,-,N/A,,Scattered Clouds,50,2013-07-24 02:29:00
4:53 PM,81.0,72.0,74,29.99,10.0,ENE,11.5,-,N/A,,Partly Cloudy,60,2013-07-24 02:53:00
5:53 PM,80.1,73.0,79,30.00,10.0,NE,11.5,-,N/A,,Mostly Cloudy,50,2013-07-24 03:53:00
6:17 PM,78.8,71.6,78,30.00,10.0,ENE,12.7,-,N/A,,Mostly Cloudy,60,2013-07-24 04:17:00
6:34 PM,78.8,71.6,78,30.01,10.0,ENE,11.5,-,N/A,,Scattered Clouds,60,2013-07-24 04:34:00
6:53 PM,77.0,72.0,84,30.00,10.0,ENE,10.4,-,N/A,,Scattered Clouds,60,2013-07-24 04:53:00
7:53 PM,77.0,72.0,84,30.01,10.0,NE,10.4,-,N/A,,Partly Cloudy,50,2013-07-24 05:53:00
8:53 PM,75.9,72.0,87,30.03,10.0,NE,9.2,-,N/A,,Scattered Clouds,50,2013-07-24 06:53:00
9:01 PM,75.2,71.6,89,30.03,10.0,NE,9.2,-,N/A,,Mostly Cloudy,40,2013-07-24 07:01:00
9:53 PM,75.9,72.0,87,30.04,10.0,ENE,8.1,-,N/A,,Mostly Cloudy,70,2013-07-24 07:53:00
10:53 PM,75.9,72.0,87,30.04,10.0,NE,8.1,-,N/A,,Overcast,50,2013-07-24 08:53:00
11:53 PM,75.9,73.0,91,30.03,10.0,NE,6.9,-,N/A,,Overcast,50,2013-07-24 09:53:00